Overview Statistics Trail Chart Weather Telemetry Raw packets
 

This is the latest recevied weather packets stored in our database for station/object G0TQM-11. If no packets are shown the sender has not sent any weather packets the latest 10 day(s).

<< 1 2 3 4 5 >>
Time Temp. Humidity Pressure Rain* Wind** Luminosity Snow
1788669723 18.89° C 49% 1017 hPa - - - -
1788668523 19.44° C 48% 1017.2 hPa - - - -
1788667322 19.44° C 48% 1017.4 hPa - - - -
1788666122 18.89° C 48% 1017.5 hPa - - - -
1788664922 19.44° C 48% 1017.8 hPa - - - -
1788663722 19.44° C 48% 1018.1 hPa - - - -
1788662522 19.44° C 48% 1018.3 hPa - - - -
1788661322 19.44° C 48% 1018.6 hPa - - - -
1788660122 19.44° C 48% 1018.9 hPa - - - -
1788658922 19.44° C 48% 1019 hPa - - - -
1788657721 20° C 47% 1019.3 hPa - - - -
1788656521 20.56° C 44% 1019.4 hPa - - - -
1788655321 20° C 44% 1019.6 hPa - - - -
1788654121 20° C 43% 1019.9 hPa - - - -
1788652921 20° C 45% 1020.3 hPa - - - -
1788651721 19.44° C 46% 1020.4 hPa - - - -
1788650521 19.44° C 46% 1020.6 hPa - - - -
1788649320 20° C 46% 1020.8 hPa - - - -
1788648120 19.44° C 46% 1020.9 hPa - - - -
1788646945 19.44° C 47% 1021 hPa - - - -
1788645720 18.89° C 49% 1021.1 hPa - - - -
1788644520 18.89° C 49% 1021.2 hPa - - - -
1788643320 18.89° C 48% 1021 hPa - - - -
1788642120 20° C 46% 1021 hPa - - - -
1788640919 20° C 46% 1021.1 hPa - - - -

* Rain since midnight (hover to see other rain measurements)
** Current wind speed in m/s (hover to see current wind gust speed)